Location: Treviso
(45.6669°N, 12.2430°E)
Time: 06:27:58
(UTC+02:00)

ISS - Pass Details

Date: 23 October 2021
Orbit: 417 x 423 km, 51.6° (Epoch: 17 October)

Event Time Altitude Azimuth Distance (km) Brightness Sun altitude
Exits shadow 06:14:08 - 204° (SSW) 1,563 -1.1 -15.4°
Reaches altitude 10° 06:14:19 10° 203° (SSW) 1,495 -1.2 -15.3°
Maximum altitude 06:17:18 30° 140° (SE) 785 -2.0 -14.8°
Drops below altitude 10° 06:20:17 10° 78° (ENE) 1,501 0.3 -14.3°
Sets 06:22:32 0° 67° (ENE) 2,367 1.3 -13.9°
